User: anonymous   Login
Location: Unspecified
(0.0000°N, 0.0000°E)
Time: 04:58:00
(UTC+02:00)
Language:

YAOGAN 3 - Orbit

View from above orbital plane
View from above orbital plane
View from above satellite
View from above satellite

Ground track
Ground track

The orbit data is extracted from the following two-line orbital elements,

1 32289U 07055A   16205.83388853  .00000343  00000-0  51406-4 0  9991
2 32289  97.9859 202.8431 0001144  73.0176 287.1164 14.80718075470143
Epoch (UTC): 23 July 2016 20:00:47
Eccentricity: 0.0001144
inclination: 97.9859°
perigee height: 626 km
apogee height: 628 km
right ascension of ascending node: 202.8431°
argument of perigee: 73.0176°
revolutions per day: 14.80718075
mean anomaly at epoch: 287.1164°
orbit number at epoch: 47014

The dashed part of the orbit path shows where the satellite is in the earth's shadow,  

DLR